Meeandah, Australia

4:31 AM AEST on May 27, 2017 (GMT +1000)
Meeandah

Weather History for 94578 - October, 2013

Change the Weather History Date:

Tuesday, October 29, 2013

  Actual Average Record
Temperature  
Mean Temperature 73 °F -  
Max Temperature 80 °F 81 °F - ()
Min Temperature 66 °F 65 °F - ()
Cooling Degree Days 8    
Growing Degree Days 23 (Base 50)    
Moisture  
Dew Point 64 °F    
Average Humidity 75    
Maximum Humidity 94    
Minimum Humidity 50    
Precipitation  
Precipitation 0.12 in 0.14 in - ()
Sea Level Pressure  
Sea Level Pressure 29.92 in    
Wind  
Wind Speed 16 mph ()    
Max Wind Speed 28 mph    
Max Gust Speed 38 mph    
Visibility 6.4 miles    
Events Rain , Thunderstorm    
T = Trace of Precipitation, MM = Missing Value Source: Averaged Metar Reports

Daily Weather History Graph

Daily Weather History Graph

Search for Another Location

Airport or City:

Trip Planner

Search our weather history database for the weather conditions in past years. The results will help you decide how hot, cold, wet, or windy it might be!

Date:

Astronomy

Oct. 29, 2013 Rise Set
Actual Time 4:59 AM AEST 6:03 PM AEST
Civil Twilight 4:34 AM AEST 6:28 PM AEST
Nautical Twilight 4:05 AM AEST 6:56 PM AEST
Astronomical Twilight 3:36 AM AEST 7:26 PM AEST
Moon 1:15 AM AEST (10/29) 1:01 PM AEST (10/29)
Length of Visible Light 13h 53m
Length of Day
13h 04m
Waning Crescent, 30% of the Moon is Illuminated
Oct 29
Waning Crescent
Nov 3
New
Nov 10
First Quarter
Nov 18
Full
Nov 26
Last Quarter

Hourly Weather History & Observations

Time (AEST) Temp. Heat Index Dew Point Humidity Pressure Visibility Wind Dir Wind Speed Gust Speed Precip Events Conditions
12:00 AM 70 °F - 63 °F 72% 30.02 in 11 mi North 18.4 mph - -   Haze
12:00 AM 69.8 °F - 62.6 °F 78% 30.01 in 6.2 mi North 18.4 mph - N/A   Partly Cloudy
12:30 AM 69.8 °F - 62.6 °F 78% 30.01 in 6.2 mi North 17.3 mph - N/A   Partly Cloudy
1:00 AM 70 °F - 62 °F 69% 30.01 in - North 17.3 mph - -  
1:00 AM 69.8 °F - 62.6 °F 78% 30.01 in 6.2 mi North 17.3 mph - N/A   Partly Cloudy
1:30 AM 69.8 °F - 62.6 °F 78% 29.98 in 6.2 mi North 16.1 mph - N/A   Partly Cloudy
2:00 AM 69.8 °F - 62.6 °F 78% 29.98 in 6.2 mi North 12.7 mph - N/A   Partly Cloudy
2:30 AM 68.0 °F - 62.6 °F 83% 29.98 in 6.2 mi North 11.5 mph - N/A   Partly Cloudy
3:00 AM 68 °F - 62 °F 74% 29.98 in 10 mi North 8.1 mph - -   Haze
3:00 AM 68.0 °F - 62.6 °F 83% 29.98 in 6.2 mi North 8.1 mph - N/A   Partly Cloudy
3:30 AM 68.0 °F - 62.6 °F 83% 29.98 in 6.2 mi NNW 8.1 mph - N/A   Partly Cloudy
4:00 AM 67 °F - 62 °F 79% 29.99 in - North 10.4 mph - -  
4:00 AM 68.0 °F - 62.6 °F 83% 29.98 in 6.2 mi North 10.4 mph - N/A   Partly Cloudy
4:30 AM 68.0 °F - 62.6 °F 83% 29.98 in - North 9.2 mph - N/A   Clear
5:00 AM 68.0 °F - 62.6 °F 83% 29.98 in 6.2 mi North 15.0 mph - N/A   Partly Cloudy
5:30 AM 66.2 °F - 62.6 °F 88% 29.98 in 6.2 mi North 12.7 mph - N/A   Partly Cloudy
6:00 AM 67 °F - 62 °F 79% 30.01 in 11 mi WNW 8.1 mph - -   Haze
6:00 AM 68.0 °F - 62.6 °F 83% 30.01 in 6.2 mi WNW 8.1 mph - N/A   Partly Cloudy
6:30 AM 69.8 °F - 62.6 °F 78% 30.01 in 6.2 mi WNW 4.6 mph - N/A   Partly Cloudy
7:00 AM 71 °F - 63 °F 69% 30.01 in - NNW 8.1 mph - -  
7:00 AM 71.6 °F - 62.6 °F 73% 30.01 in 6.2 mi NNW 8.1 mph - N/A   Partly Cloudy
7:30 AM 73.4 °F - 62.6 °F 69% 30.01 in 6.2 mi North 17.3 mph - N/A   Partly Cloudy
8:00 AM 75.2 °F - 62.6 °F 65% 30.01 in 6.2 mi North 17.3 mph - N/A   Partly Cloudy
8:30 AM 77.0 °F - 62.6 °F 61% 30.01 in 6.2 mi North 18.4 mph - N/A   Partly Cloudy
9:00 AM 77 °F - 62 °F 50% 30.00 in 12 mi North 17.3 mph - -   Haze
9:00 AM 77.0 °F - 62.6 °F 61% 29.98 in 6.2 mi North 17.3 mph - N/A   Partly Cloudy
9:30 AM 78.8 °F - 62.6 °F 57% 29.98 in 6.2 mi North 15.0 mph - N/A   Partly Cloudy
10:00 AM 79 °F - 66 °F 55% 29.97 in - North 20.7 mph - -  
10:00 AM 78.8 °F - 66.2 °F 65% 29.95 in 6.2 mi North 20.7 mph - N/A   Partly Cloudy
10:30 AM 78.8 °F - 66.2 °F 65% 29.95 in 6.2 mi North 23.0 mph - N/A   Partly Cloudy
11:00 AM 80.6 °F 82.7 °F 66.2 °F 61% 29.92 in 6.2 mi NNE 24.2 mph - N/A   Partly Cloudy
11:30 AM 78.8 °F - 66.2 °F 65% 29.89 in 6.2 mi NNE 26.5 mph - N/A   Partly Cloudy
12:00 PM 79 °F - 66 °F 55% 29.89 in 11 mi NNE 27.6 mph - -   Haze
12:00 PM 78.8 °F - 66.2 °F 65% 29.89 in 6.2 mi NNE 27.6 mph - N/A   Scattered Clouds
12:30 PM 80.6 °F 82.7 °F 66.2 °F 61% 29.86 in 6.2 mi NNE 27.6 mph - N/A   Mostly Cloudy
1:00 PM 76 °F - 66 °F 63% 29.87 in - North 26.5 mph - -  
1:00 PM 77.0 °F - 66.2 °F 69% 29.86 in 6.2 mi North 26.5 mph - N/A   Partly Cloudy
1:30 PM 75.2 °F - 66.2 °F 73% 29.83 in 6.2 mi North 27.6 mph - N/A   Partly Cloudy
2:00 PM 77.0 °F - 68.0 °F 74% 29.83 in 6.2 mi North 21.9 mph - N/A Rain Rain Showers
2:30 PM 75.2 °F - 66.2 °F 73% 29.86 in 6.2 mi North 23.0 mph - N/A Rain Rain Showers
2:38 PM 75.2 °F - 66.2 °F 73% 29.86 in 6.2 mi ENE 9.2 mph - N/A Rain Rain Showers
3:00 PM 76 °F - 67 °F 68% 29.86 in 9 mi NE 8.1 mph - - Rain Light Rain Showers
3:00 PM 77.0 °F - 68.0 °F 74% 29.86 in 6.2 mi NE 8.1 mph - N/A Rain Light Rain Showers
3:30 PM 77.0 °F - 68.0 °F 74% 29.80 in 6.2 mi NNE 20.7 mph - N/A   Mostly Cloudy
4:00 PM 75 °F - 67 °F 69% 29.82 in - NNE 21.9 mph - -  
4:00 PM 75.2 °F - 66.2 °F 73% 29.80 in 6.2 mi NNE 21.9 mph - N/A   Mostly Cloudy
4:30 PM 75.2 °F - 66.2 °F 73% 29.80 in 6.2 mi NNE 21.9 mph - N/A   Mostly Cloudy
5:00 PM 75.2 °F - 66.2 °F 73% 29.80 in 6.2 mi North 19.6 mph - N/A Rain , Thunderstorm Rain Showers
5:08 PM 75.2 °F - 66.2 °F 73% 29.83 in 3.1 mi North 17.3 mph - N/A Rain , Thunderstorm Thunderstorms and Rain
5:30 PM 73.4 °F - 68.0 °F 83% 29.86 in 3.1 mi NW 15.0 mph - N/A Rain , Thunderstorm Thunderstorms and Rain
5:37 PM 73.4 °F - 68.0 °F 83% 29.89 in 1.2 mi West 17.3 mph - N/A Rain , Thunderstorm Heavy Thunderstorms and Rain
5:47 PM 71.6 °F - 68.0 °F 88% 29.86 in 2.5 mi North 18.4 mph - N/A Rain , Thunderstorm Thunderstorms and Rain
6:00 PM 69.8 °F - 66.2 °F 88% 29.86 in 3.7 mi North 20.7 mph - N/A Rain , Thunderstorm Light Thunderstorms and Rain
6:30 PM 69.8 °F - 64.4 °F 83% 29.83 in 5.6 mi North 20.7 mph - N/A Rain , Thunderstorm Light Rain
7:00 PM 68 °F - 64 °F 81% 29.89 in - North 19.6 mph - -  
7:00 PM 68.0 °F - 64.4 °F 88% 29.89 in 6.2 mi North 19.6 mph - N/A   Mostly Cloudy
7:30 PM 69.8 °F - 62.6 °F 78% 29.89 in - North 21.9 mph - N/A   Clear
8:00 PM 68.0 °F - 64.4 °F 88% 29.86 in 5.6 mi North 23.0 mph - N/A Rain Light Rain
8:25 PM 68.0 °F - 66.2 °F 94% 29.89 in 6.2 mi North 26.5 mph 38.0 mph N/A   Mostly Cloudy
8:30 PM 69.8 °F - 66.2 °F 88% 29.89 in 6.2 mi North 25.3 mph 38.0 mph N/A   Mostly Cloudy
8:40 PM 68.0 °F - 66.2 °F 94% 29.89 in 6.2 mi NW 19.6 mph - N/A   Mostly Cloudy
9:00 PM 69 °F - 66 °F 86% 29.93 in 12 mi West 17.3 mph - -   Partly Cloudy
9:00 PM 69.8 °F - 66.2 °F 88% 29.92 in 6.2 mi West 17.3 mph - N/A   Mostly Cloudy
9:30 PM 68.0 °F - 60.8 °F 78% 29.92 in 6.2 mi North 19.6 mph - N/A   Mostly Cloudy
9:44 PM 68.0 °F - 59.0 °F 73% 29.92 in 6.2 mi North 20.7 mph 32.2 mph N/A   Mostly Cloudy
10:00 PM 69 °F - 58 °F 61% 29.94 in - North 21.9 mph - -  
10:00 PM 68.0 °F - 59.0 °F 73% 29.92 in - North 21.9 mph - N/A   Clear
10:30 PM 66.2 °F - 59.0 °F 78% 29.92 in 6.2 mi North 17.3 mph - N/A   Mostly Cloudy
11:00 PM 68.0 °F - 59.0 °F 73% 29.92 in 6.2 mi North 18.4 mph - N/A   Mostly Cloudy
11:30 PM 68.0 °F - 57.2 °F 68% 29.89 in 6.2 mi North 20.7 mph - N/A   Scattered Clouds